www.pogodaiklimat.ru

Погода и климат >> Архив погоды >> Австрия >> Линц


ПОГОДА в Линце

  • Прогноз погоды в Линце
  • Монитор погоды в Линце

АРХИВ ПОГОДЫ в Линце

Время (UTC), дата Ветер
(напр.,м/с)
 
Видим.   Явления Облачность Т
(С)
Тd
(С)
f
(%)
Тe
(С)
Тes
(С)
Комфортность P
(гПа)
Po
(гПа)
Тmin
(С)
Tmax
(С)
R
(мм)
R24
(мм)
S
(см)
10 12.07 З 4 40 км 8/8 870 м
[]
+20.4 +13.6 65 +23 +25 комфорт 1013.0 977.2
11 12.07 СЗ 4 45 км 9/9 960 м
[]
+21.8 +13.1 58 +24 +26 комфорт 1012.2 976.5
12 12.07 З 7 55 км гроза без осадков 9/9 1000 м
[]
+23.2 +12.5 51 +26 +27 жарко 1011.4 975.9
13 12.07 З 6 50 км 9/9 1260 м
[]
+23.8 +12.8 50 +26 +26 жарко 1010.8 975.4
14 12.07 З 6 65 км 9/9 1260 м
[]
+22.8 +12.2 51 +25 +26 комфорт 1011.1 975.6
15 12.07 З 6
{19}
11 км ливневой дождь 10/10 660 м
[]
+16.6 +13.4 81 +16 +16 1012.9 976.6 1
16 12.07 З 4 50 км 9/9 750 м
[]
+17.7 +14.5 82 +17 +18 1012.1 976.0 2
17 12.07 ЮЗ 4 55 км 10/0
[]
+17.9 +14.8 82 +18 +18 1011.7 975.6
18 12.07 С 2
{19}
40 км 9/9 270 м
[]
+18.4 +14.9 80 +19 +19 1011.3 975.3 +24.1 3
19 12.07 35 км 5/0
[]
+17.7 +14.8 83 1011.5 975.4
20 12.07 30 км 1/0
[]
+16.6 +14.8 89 1011.9 975.7
21 12.07 20 км 8/0
[]
+16.3 +14.7 90 1012.0 975.7
22 12.07 18 км 10/0
[]
+15.5 +14.3 93 1011.9 975.5
23 12.07 22 км 10/0 2000 м
[]
+15.0 +14.1 94 1011.6 975.2
00 13.07 З 5 5000 м сильн. ливневой дождь 10/10 720 м
[]
+15.2 +13.2 88 +14 +14 1012.1 975.7 7
01 13.07 З 5 30 км слаб. дождь 10/10 840 м
[]
+15.1 +13.5 90 +14 +14 1012.2 975.7 5
02 13.07 З 4 18 км ливневой дождь 10/10 480 м
[]
+14.9 +13.6 92 +14 +14 1012.2 975.7 0.7
03 13.07 С 2 35 км 10/10 360 м
[]
+14.9 +13.7 93 +15 +15 1012.0 975.5 0.2
04 13.07 45 км 10/10 210 м
[]
+14.3 +12.7 90 1012.2 975.6 0.0
05 13.07 З 5 8000 м ливневой дождь 10/10 270 м
[]
+14.6 +13.1 91 +13 +13 1012.3 975.8 0.9
06 13.07 З 7 12 км слаб. ливневой дождь 10/10 270 м
[]
+14.7 +13.1 90 +13 +13 1012.8 976.3 +14.2 2
07 13.07 З 6 60 км слаб. дождь 10/10 270 м
[]
+14.6 +12.4 87 +13 +13 1013.4 976.8 0.5
08 13.07 З 6 11 км слаб. ливневой дождь 10/10 270 м
[]
+15.0 +13.5 91 +13 +13 1013.6 977.1 0.8
09 13.07 З 6 22 км слаб. дождь 10/10 270 м
[]
+15.2 +13.6 90 +14 +14 1014.0 977.5 0.7
10 13.07 З 6 9000 м слаб. дождь 10/10 270 м
[]
+15.6 +13.8 89 +14 +14 1014.2 977.7 0.6
11 13.07 З 7 30 км 10/10 400 м
[]
+16.0 +13.7 86 +14 +14 1014.3 977.9 0.6
12 13.07 З 6 7000 м ливневой дождь 10/10 300 м
[]
+16.2 +14.2 88 +15 +15 1014.4 978.0 0.4
14 13.07 З 7 35 км 9/9 330 м
[]
+17.2 +14.0 81 +16 +16 1013.9 977.6
15 13.07 ЮЗ 7
{13}
30 км 9/9 450 м
[]
+17.3 +14.1 81 +16 +16 1013.8 977.6 0.0
17 13.07 З 6 17 км слаб. ливневой дождь 10/10 600 м
[]
+16.0 +13.3 84 +15 +15 1014.6 978.2 0.5
18 13.07 З 5
{13}
55 км 10/10 330 м
[]
+14.9 +13.0 88 +13 +13 1015.2 978.6 +17.8 0.6
19 13.07 З 5 19 км слаб. дождь 10/10 500 м
[]
+14.8 +13.3 91 +13 +13 1015.6 979.0 0.2
20 13.07 З 4 35 км слаб. ливневой дождь 10/10 600 м
[]
+14.9 +13.0 88 +14 +14 1015.8 979.2 0.1
21 13.07 30 км 10/10 570 м
[]
+14.7 +13.0 90 1016.1 979.4 0.0
22 13.07 11 км 10/10 540 м
[]
+15.0 +12.8 87 1016.1 979.5
23 13.07 25 км 10/10 450 м
[]
+15.0 +13.1 88 1016.2 979.6 0.0
00 14.07 З 4 30 км 10/10 450 м
[]
+14.9 +13.0 88 +14 +14 1015.8 979.2 0.3
01 14.07 З 4 20 км слаб. ливневой дождь 10/10 400 м
[]
+14.7 +13.0 90 +13 +13 1015.5 978.9 0.0
02 14.07 З 3 19 км 10/10 330 м
[]
+14.7 +13.4 92 +14 +14 1015.3 978.7 0.0
03 14.07 С 3 15 км 10/10 300 м
[]
+14.7 +13.2 91 +14 +14 1015.4 978.8
04 14.07 З 3 17 км 10/10 300 м
[]
+14.9 +13.4 91 +14 +14 1015.2 978.6
05 14.07 З 3 14 км 9/9 270 м
[]
+15.0 +13.4 90 +14 +14 1015.2 978.6
06 14.07 З 4 16 км 9/9 270 м
[]
+15.4 +13.6 89 +14 +15 1015.3 978.8 +14.5 0.5
07 14.07 З 4 21 км 9/9 270 м
[]
+16.2 +13.6 85 +15 +16 1015.5 979.1
08 14.07 З 3 27 км 9/9 360 м
[]
+17.0 +13.3 79 +17 +18 1015.5 979.2
09 14.07 З 3 40 км 9/9 600 м
[]
+18.0 +13.4 74 +18 +19 1015.2 979.0
10 14.07 40 км 5/5 700 м
[]
+19.6 +13.5 68 1014.6 978.6
11 14.07 З 3 40 км гроза без осадков 9/9 800 м
[]
+19.7 +12.5 63 +22 +23 комфорт 1014.5 978.5 0.0
12 14.07 70 км гроза без осадков 6/6 840 м
[]
+18.2 +11.8 66 1014.4 978.2 0.1
13 14.07 Ю 3 45 км 9/9 840 м
[]
+17.2 +13.4 78 +17 +18 1014.9 978.6
14 14.07 50 км гроза без осадков 9/9 840 м
[]
+17.2 +13.3 78 1015.2 978.9 0.6
15 14.07 С 2 11 км ливневой дождь 9/9 500 м
[]
+16.8 +14.8 88 +17 +18 1015.1 978.8 0.6
16 14.07 35 км слаб. ливневой дождь 4/4 120 м
[]
+16.2 +13.4 83 1014.7 978.3 1
17 14.07 40 км 8/8 1440 м
[]
+16.2 +13.0 81 1015.2 978.8 0.0
18 14.07 С 3 45 км 10/10 1500 м
[]
+15.9 +13.6 86 +15 +15 1015.1 978.6 +20.6 0.0
19 14.07 45 км 10/0
[]
+15.4 +13.8 90 1015.4 978.9 0.1
20 14.07 30 км 6/0
[]
+14.3 +13.4 94 1015.7 979.0
21 14.07 6000 м 1/0
[]
+13.6 +13.0 96 1015.9 979.1
22 14.07 1000 м дымка 1/1 90 м
[]
+13.2 +12.7 97 1015.9 979.1
23 14.07 5000 м 4/4 <50 м
[]
+12.5 +12.2 98 1016.0 979.1
00 15.07 С 1 200 м туман ?/? +13.0 +13.0 100 +13 +13 1015.9 979.0 0.1
01 15.07 300 м туман 10/10 <50 м
[]
+13.0 +13.0 100 1015.6 978.7
02 15.07 300 м туман 10/10 <50 м
[]
+12.4 +12.4 100 1015.5 978.6
03 15.07 С 1 400 м туман 10/10 30 м
[]
+12.2 +12.2 100 +12 +12 1015.6 978.6
04 15.07 300 м туман 10/10 30 м
[]
+12.3 +12.3 100 1015.9 978.9
05 15.07 300 м туман 10/10 30 м
[]
+12.5 +12.5 100 1016.0 979.1
06 15.07 С 2 6000 м дымка 9/9 60 м
[]
+12.9 +12.9 100 +12 +12 1016.1 979.2 +12.1 0.1
07 15.07 8000 м 6/6 90 м
[]
+14.5 +13.8 96 1016.0 979.3
08 15.07 14 км 3/3 300 м
[]
+16.8 +13.5 81 1015.6 979.2
09 15.07 СВ 3 50 км 4/4 540 м
[]
+19.2 +12.1 63 +21 +28 комфорт 1015.1 979.0
10 15.07 35 км 6/6 960 м
[]
+21.0 +13.3 61 1014.6 978.8
11 15.07 45 км 5/5 1110 м
[]
+20.8 +11.8 56 1014.7 978.8
12 15.07 45 км 6/6 1350 м
[]
+21.3 +10.7 51 1014.3 978.5
13 15.07 45 км 6/6 1380 м
[]
+22.3 +11.7 51 1013.9 978.2
14 15.07 60 км 5/5 1500 м
[]
+21.0 +11.5 55 1014.0 978.2
15 15.07 40 км 3/3 1500 м
[]
+23.6 +11.6 47 1013.3 977.8
16 15.07 50 км 4/4 1500 м
[]
+23.6 +9.7 41 1012.9 977.4
17 15.07 55 км 9/0
[]
+22.8 +10.0 44 1013.1 977.5
18 15.07 С 1 50 км 1/0
[]
+22.5 +11.2 49 +25 +25 комфорт 1013.2 977.6 +24.3
19 15.07 штиль 0 45 км н/о +20.5 +11.0 54 +22 +22 комфорт 1013.7 977.8
20 15.07 50 км 8/0
[]
+19.5 +12.0 62 1014.3 978.3
21 15.07 45 км н/о +17.7 +12.3 71 1014.8 978.6
22 15.07 35 км н/о +15.6 +12.5 82 1015.2 978.7
23 15.07 35 км н/о +15.0 +12.3 84 1015.5 978.9
00 16.07 С 2 29 км 1/0 2000 м
[]
+13.6 +11.6 88 +13 +13 1015.7 978.9
01 16.07 30 км н/о +13.8 +11.8 88 1015.7 978.9
02 16.07 25 км н/о +13.0 +11.4 90 1015.8 978.9
03 16.07 15 км н/о +12.6 +11.0 90 1015.8 978.9
04 16.07 16 км местами туман поземный 1/0
[]
+11.9 +10.8 93 1016.0 979.0
05 16.07 16 км 3/0
[]
+13.2 +11.7 91 1016.2 979.3
06 16.07 21 км 3/0
[]
+14.8 +12.7 87 1016.0 979.4 +11.7
07 16.07 30 км 3/3 480 м
[]
+17.0 +13.0 77 1015.8 979.4
08 16.07 З 5 35 км 3/3 720 м
[]
+19.4 +13.3 68 +21 +25 комфорт 1015.2 979.2
09 16.07 З 7 35 км 3/3 960 м
[]
+21.1 +13.6 62 +24 +26 комфорт 1014.7 978.9
10 16.07 СЗ 7 40 км 3/3 1020 м
[]
+22.3 +13.3 57 +25 +29 комфорт 1014.5 978.8
11 16.07 З 8 40 км 3/3 1200 м
[]
+22.8 +13.2 55 +26 +28 жарко 1014.5 978.9
12 16.07 З 7 45 км 4/4 1200 м
[]
+24.0 +12.7 49 +26 +29 жарко 1014.2 978.7
13 16.07 З 7 50 км 4/4 1500 м
[]
+24.3 +10.5 42 +25 +28 комфорт 1013.9 978.4
14 16.07 З 8 55 км 4/4 1500 м
[]
+24.7 +10.7 41 +26 +27 жарко 1013.5 978.1
15 16.07 СЗ 6 55 км 3/3 1500 м
[]
+25.2 +10.6 40 +26 +28 жарко 1013.2 977.9
16 16.07 СЗ 7 60 км 1/1 1500 м
[]
+24.9 +9.4 37 +26 +27 жарко 1013.0 977.6
17 16.07 СЗ 6 50 км 1/1 1500 м
[]
+24.6 +10.2 40 +26 +26 жарко 1013.0 977.6
18 16.07 З 5 65 км н/о +23.6 +10.6 44 +25 +25 комфорт 1013.1 977.6 +25.3
19 16.07 50 км ясно +20.8 +11.6 56 1013.8 977.9
20 16.07 55 км ясно +18.8 +11.3 62 1014.4 978.3
21 16.07 40 км ясно +18.2 +11.2 64 1014.6 978.4
22 16.07 21 км ясно +15.8 +11.4 75 1015.1 978.6
23 16.07 ЮЗ 3 35 км н/о +14.8 +11.2 79 +14 +14 1015.5 978.8
00 17.07 ЮЗ 4 40 км н/о +15.2 +11.0 76 +14 +14 1015.6 979.0
01 17.07 35 км н/о +13.5 +10.7 83 1015.6 978.8
02 17.07 35 км н/о +13.6 +10.4 81 1015.4 978.6
03 17.07 27 км н/о +11.9 +10.0 88 1015.4 978.4
04 17.07 22 км 1/0
[]
+11.8 +10.2 90 1015.4 978.4
05 17.07 25 км 3/0
[]
+14.0 +11.1 83 1015.2 978.5
06 17.07 С 1 11 км 3/0
[]
+16.5 +12.3 76 +17 +21 1015.0 978.6 +11.8
07 17.07 35 км 3/0
[]
+18.3 +11.3 64 1014.6 978.4
08 17.07 35 км 4/0
[]
+20.0 +11.4 58 1014.1 978.1
09 17.07 С 2 40 км 4/4 1080 м
[]
+21.2 +11.7 55 +23 +32 комфорт 1013.7 977.9
10 17.07 40 км 6/6 1350 м
[]
+23.1 +12.2 50 1012.9 977.4
11 17.07 З 3 55 км 4/4 1500 м
[]
+24.3 +11.3 44 +26 +35 жарко 1012.3 976.9
12 17.07 С 2 35 км 4/4 1500 м
[]
+24.9 +13.0 48 +27 +37 жарко 1011.8 976.5
13 17.07 З 4 45 км 5/5 1500 м
[]
+26.0 +10.6 38 +27 +32 жарко 1011.3 976.1
14 17.07 СЗ 4 40 км 5/5 1500 м
[]
+26.0 +11.6 41 +27 +31 жарко 1010.9 975.8
15 17.07 СЗ 4 40 км 6/6 1500 м
[]
+26.4 +12.0 41 +28 +30 жарко 1010.4 975.3
16 17.07 СЗ 4 45 км 6/6 1500 м
[]
+27.0 +11.0 37 +28 +29 жарко 1009.9 974.9
17 17.07 С 3 50 км 1/0
[]
+26.8 +11.2 38 +28 +29 жарко 1009.6 974.6
18 17.07 СЗ 3 29 км н/о +25.9 +11.4 40 +27 +27 жарко 1009.4 974.3 +27.5
19 17.07 С 1 45 км н/о +22.7 +12.3 52 +25 +25 комфорт 1010.0 974.5
20 17.07 С 1 40 км н/о +21.2 +13.2 60 +24 +24 комфорт 1010.8 975.1
21 17.07 С 1 26 км 1/0 2000 м
[]
+19.1 +13.0 68 +21 +21 комфорт 1011.1 975.2
22 17.07 С 1 30 км 1/0 2000 м
[]
+18.7 +12.7 68 +21 +21 комфорт 1011.5 975.5
23 17.07 С 1 35 км 5/0
[]
+17.1 +13.0 77 +18 +18 1011.8 975.6
00 18.07 35 км н/о +16.4 +12.8 79 1011.8 975.5
01 18.07 35 км н/о +16.2 +12.5 79 1011.9 975.6
02 18.07 30 км н/о +14.8 +12.4 86 1011.9 975.4
03 18.07 26 км н/о +13.9 +11.4 85 1012.5 975.9
04 18.07 С 1 29 км 5/0 2000 м
[]
+14.2 +11.9 86 +15 +15 1012.9 976.3
05 18.07 С 1 28 км 3/0 2000 м
[]
+16.3 +13.2 82 +17 +18 1012.5 976.2
06 18.07 С 1 35 км 3/0 2000 м
[]
+18.6 +13.4 72 +20 +24 1012.5 976.5 +13.2
07 18.07 35 км 3/0 2000 м
[]
+19.8 +13.4 67 1012.5 976.6
08 18.07 35 км 3/0 2000 м
[]
+20.5 +13.4 64 1012.5 976.7
09 18.07 35 км 3/0 2000 м
[]
+22.8 +13.7 56 1012.3 976.8
10 18.07 30 км 3/0 2000 м
[]
+23.6 +13.0 51 1012.0 976.6
11 18.07 С 3 50 км 3/3 1500 м
[]
+24.9 +11.1 42 +26 +36 жарко 1011.6 976.3
12 18.07 40 км 3/3 1500 м
[]
+25.9 +12.0 42 1011.2 976.0
13 18.07 СЗ 5 55 км 3/0 2000 м
[]
+27.3 +10.7 35 +28 +34 жарко 1010.8 975.8
14 18.07 З 6 40 км 1/0 2000 м
[]
+27.1 +8.0 30 +27 +31 жарко 1011.0 975.9
15 18.07 З 5 50 км 1/0 2000 м
[]
+26.9 +9.9 34 +27 +31 жарко 1010.6 975.6
16 18.07 СЗ 5 55 км 1/0 2000 м
[]
+26.9 +10.1 35 +27 +30 жарко 1010.6 975.6
17 18.07 СЗ 5 45 км н/о +26.7 +9.6 34 +27 +27 жарко 1010.6 975.5
18 18.07 З 3 35 км н/о +25.0 +11.5 43 +26 +26 жарко 1011.2 975.9 +27.9
19 18.07 30 км н/о +24.0 +10.3 42 1011.5 976.1
20 18.07 30 км н/о +21.4 +10.7 50 1012.7 976.9
21 18.07 30 км 6/0
[]
+19.5 +11.9 61 1013.1 977.1
22 18.07 30 км 9/0
[]
+18.2 +12.1 68 1013.5 977.4
23 18.07 29 км 1/0
[]
+18.0 +12.3 69 1013.9 977.7
00 19.07 35 км 1/0
[]
+16.6 +12.1 75 1014.3 977.9
01 19.07 30 км н/о +16.3 +12.3 77 1014.7 978.3
02 19.07 30 км 3/0
[]
+15.1 +12.0 82 1015.0 978.4
03 19.07 30 км 1/0
[]
+14.7 +11.9 83 1015.1 978.5
05 19.07 22 км 8/0
[]
+16.1 +12.6 80 1015.7 979.2
06 19.07 С 1 26 км 1/0
[]
+18.1 +13.5 74 +19 +24 1015.8 979.6 +14.0
07 19.07 35 км 5/0
[]
+20.0 +13.7 67 1015.8 979.8
08 19.07 45 км 8/0
[]
+21.9 +12.9 57 1015.7 979.9
09 19.07 40 км 8/8 1500 м
[]
+21.8 +12.8 57 1016.1 980.3

 

Местоположение метеостанции Линц (Австрия): широта 48.23 долгота 14.18 высота над уровнем моря 313 м.

В архиве по умолчанию представлена погода в Линце за последнюю неделю. Архивные данные за месяц целиком и за предыдущие месяцы, начиная с января 2011 года, Вы можете получить, выбрав интересующий диапазон дат из раскрывающегося списка и нажав кнопку "Ввод!".


*Определитесь, кто Вы:
робот инопланетянин человек

Внимание! Время в таблицах - всемирное. Для получения местного времени необходимо прибавить поправку, которая равна 1 ч.

Смотрите также архив погоды в соседних городах и на ближайших метеорологических станциях:

Погода в Вельс / Шлайсхайм (Австрия) (11 км)
Погода в Линце город (Австрия) (11 км)
Погода в Кремсмюнстере (Австрия) (20 км)
Погода в Рорбахе (Австрия) (40 км)
Погода в Вольфсегг-ам-Хаусрукке (Австрия) (41 км)
Погода в Гмундене (Австрия) (46 км)
Погода в Рид-им-Иннкрайсе (Австрия) (52 км)
Погода в Вайдхофен-ан-дер-Ибсе (Австрия) (54 км)
Погода в Амштеттене (Австрия) (55 км)
Погода в Вайдхофен-ан-дер-Ибсе (Австрия) (56 км)

Пояснения к столбцам:

Ветер - указаны скорость ветра в м/с - средняя за 10 мин, порывы в срок и между сроками (в фигурных скобках) и направление, откуда дует ветер: С - северный, СВ - северо-восточный, В - восточный, ЮВ - юго-восточный, Ю - южный, ЮЗ - юго-западный, З - западный, СЗ - северо-западный.
Видимость - горизонтальная дальность видимости в метрах или километрах. При видимости от 1 до 10 км при отсутствии осадков обычно наблюдается дымка, при ухудшении видимости до 1 км и менее - туман. В сухую погоду видимость может ухудшаться дымом, пылью или мглою.
Явления - указаны атмосферные явления, наблюдавшиеся в срок или в последний час перед сроком; фигурными скобками обозначены явления, наблюдавшиеся между сроками (за 1-3 часа до срока); квадратными скобками обозначены град или гололедные отложения с указанием их диаметра в мм.
Облачность - указаны через наклонную черту общая и нижняя облачность в баллах и высота нижней границы облаков в метрах; квадратными скобками обозначены формы облаков: Ci - перистые, Cs - перисто-слоистые, Cc - перисто-кучевые, Ac - высококучевые, As - высокослоистые, Sc - слоисто-кучевые, Ns - слоисто-дождевые, Cu - кучевые, Cb - кучево-дождевые. Подробнее классификацию облаков см. в Атласе облаков (PDF).
T - Температура воздуха - температура, измеренная на высоте 2 м над землей.
Td - Температура точки росы - температура, при понижении до которой содержащийся в воздухе водяной пар достигнет насыщения.
f - Относительная влажность воздуха - влажноcть воздуха, измеренная на высоте 2 м над землей.
Te - Эффективная температура - температура, которую ощущает одетый по сезону человек в тени. Характеристика душности погоды. При расчете учитывается влияние влажности воздуха и скорости ветра на теплоощущения человека.
Tes - Эффективная температура на солнце - температура, которую ощущает человек, с поправкой на солнечный нагрев. Характеристика знойности погоды. Зависит от высоты солнца над горизонтом, облачности и скорости ветра. Ночью, в пасмурную погоду, а также при ветре 12 м/с и более поправка равна нулю.
P - Атмосферное давление - приведенное к уровню моря атмосферное давление.
Po - Атмосферное давление - измеренное на уровне метеостанции атмосферное давление.
Tmin - Минимальная температура - минимум температуры воздуха на высоте 2 м над землей.
Tmax - Максимальная температура - максимум температуры воздуха на высоте 2 м над землей.
R - Количество осадков - Количество выпавших осадков за период времени, мм. При наведении курсора мыши на число - период времени, за который выпало указанное количество осадков.
R24 - Количество осадков - Количество выпавших осадков за 24 часа, мм.
S - Снежный покров - Высота снежного покрова, см. При наведении курсора мыши на число - состояние снежного покрова и степень покрытия местности в баллах.